#timestamp,LO_Frequency,Hit,StdDev 
1685084415.3,286046996.8,N
1685084435.1,286046995.8,N
1685084455.9,286046994.3,N
1685084475.7,286046993.1,N
1685084495.5,286046990.6,N
1685084515.4,286046989.3,N
1685084535.2,286046987.2,N
1685084555.0,286046991.4,N
1685084555.9,286046991.4,N
1685084575.8,286046992.4,N
1685084595.6,286046993.2,N
1685084615.5,286046997.5,N
1685084635.3,286046999.8,N
1685084655.1,286047002.6,N
1685084675.9,286047002.3,N
1685084695.7,286047002.9,N
1685084715.5,286047003.9,N
1685084735.4,286047005.8,N
1685084755.2,286047006.0,N
1685084775.1,286047005.2,N
1685084776.0,286047005.2,N
1685084795.8,286047005.4,N
1685084815.6,286047008.6,N
1685084835.5,286047008.5,N
1685084855.3,286047007.8,N
1685084875.1,286047011.3,N
1685084895.9,286047013.4,N
1685084915.7,286047015.6,N
1685084935.6,286047014.5,N
1685084955.4,286047018.3,N
1685084975.2,286047019.8,N
1685084995.1,286047020.0,N
1685084996.0,286047020.0,N
1685085015.8,286047020.7,N
1685085035.6,286047026.6,N
1685085055.5,286047026.3,N
1685085075.3,286047023.1,N
1685085095.1,286047024.6,N
1685085115.9,286047025.1,N
1685085135.7,286047020.9,N
1685085155.6,286047021.4,N
1685085175.4,286047019.3,N
1685085195.2,286047017.3,N
1685085215.1,286047015.7,N
1685085216.0,286047015.7,N
1685085235.8,286047017.0,N
1685085255.6,286047015.1,N
1685085275.5,286047013.6,N
1685085295.3,286047011.8,N
1685085315.2,286047013.5,N
1685085335.9,286047013.0,N
1685085355.7,286047011.3,N
1685085375.6,286047011.5,N
1685085395.4,286047009.4,N
1685085415.2,286047010.5,N
1685085435.1,286047010.4,N
1685085436.0,286047010.4,N
1685085455.8,286047010.4,N
1685085475.7,286047009.8,N
1685085495.5,286047009.9,N
1685085515.3,286047012.0,N
1685085535.2,286047009.9,N
1685085555.0,286047007.7,N
1685085555.9,286047007.7,N
1685085575.8,286047010.0,N
1685085595.6,286047012.0,N
1685085615.4,286047015.0,Y
1685085635.3,286047003.6,P
1685085655.1,286047002.1,N
1685085675.8,286046998.4,N
1685085695.7,286046997.8,N
1685085715.5,286046994.2,N
1685085735.4,286046990.3,N
1685085755.2,286046990.6,N
1685085775.0,286046988.5,N
1685085775.9,286046988.5,N
1685085795.8,286046991.6,N
1685085815.6,286046988.9,N
1685085835.4,286046987.8,N
1685085855.3,286046988.3,N
1685085875.1,286046985.6,N
1685085895.9,286046984.3,N
1685085915.7,286046986.2,N
1685085935.5,286046989.9,N
1685085955.4,286046988.4,N
1685085975.2,286046987.1,N
1685085995.0,286046985.8,N
1685085995.9,286046985.8,N
1685086015.8,286046986.1,N
1685086035.6,286046983.7,N
1685086055.4,286046984.1,N
1685086075.3,286046982.2,N
1685086095.1,286046982.8,N
1685086115.9,286046981.2,N
1685086135.7,286046979.6,N
1685086155.5,286046977.5,Y
1685086175.4,286046985.4,P
1685086195.2,286046985.9,P
1685086215.0,286046983.8,P
1685086216.0,286046983.8,Y
1685086235.8,286046998.7,P
1685086255.6,286046998.5,N
1685086275.5,286046998.4,N
1685086295.3,286046998.7,N
1685086315.1,286046999.5,N
1685086335.9,286046997.0,N
1685086355.7,286046997.2,N
1685086375.5,286046995.3,N
1685086395.4,286046996.3,N
1685086415.2,286046997.6,N
1685086435.1,286046996.0,N
1685086436.0,286046996.0,N
1685086455.8,286046993.4,N
1685086475.6,286046994.1,N
1685086495.5,286046994.4,N
1685086515.3,286046993.5,N
1685086535.1,286046994.1,N
1685086555.9,286046994.8,N
1685086575.7,286046994.7,N
1685086595.6,286046992.1,N
1685086615.4,286046992.6,N
1685086635.2,286046993.0,N
1685086655.1,286046990.5,Y
1685086656.0,286046990.5,P
1685086675.8,286046996.3,N
1685086695.7,286046995.5,N
1685086715.5,286046994.9,N
1685086735.3,286046997.9,N
1685086755.2,286046995.3,N
1685086775.9,286046995.1,N
1685086795.7,286046995.5,N
1685086815.6,286046996.3,N
1685086835.4,286046994.2,Y
1685086855.3,286046999.1,P
1685086875.1,286046999.2,N
1685086876.0,286046999.2,N
1685086895.8,286046997.4,N
1685086915.7,286046997.7,N
1685086935.5,286046997.5,N
1685086955.3,286046997.4,N
1685086975.2,286046995.0,Y
1685086995.0,286046997.1,P
1685086995.9,286046997.1,P
1685087015.8,286046998.0,P
1685087035.6,286046995.4,Y
1685087055.4,286046999.1,P
1685087075.3,286046997.4,P
1685087095.1,286046995.0,P
1685087115.9,286046997.7,N
1685087135.7,286046999.2,N
1685087155.5,286046998.9,N
1685087175.4,286046998.1,N
1685087195.2,286047000.4,N
1685087215.0,286047002.4,N
1685087215.9,286047002.4,N
1685087235.8,286047002.7,N
1685087255.6,286047002.2,N
1685087275.4,286047000.1,N
1685087295.3,286047001.5,N
1685087315.1,286047003.4,N
1685087335.9,286047004.8,N
1685087355.7,286047005.3,N
1685087375.5,286047005.8,N
1685087395.4,286047004.1,N
1685087415.2,286047001.5,N
1685087435.1,286047002.8,N
1685087436.0,286047002.8,N
1685087455.8,286047000.1,N
1685087475.6,286047000.5,N
1685087495.5,286047000.2,N
1685087515.3,286047000.6,N
1685087535.1,286047000.9,N
1685087555.9,286047000.9,N
1685087575.7,286047000.8,N
1685087595.6,286046998.2,N
1685087615.4,286046998.3,N
1685087635.2,286046996.6,N
1685087655.1,286046996.9,N
1685087656.0,286046996.9,N
1685087675.8,286046995.6,N
1685087695.7,286046995.2,N
1685087715.5,286046993.9,N
1685087735.3,286046994.5,N
1685087755.2,286046993.5,N
1685087775.0,286046994.1,N
1685087775.9,286046994.1,N
1685087795.7,286046994.7,N
1685087815.6,286046993.6,N
1685087835.4,286046996.2,N
1685087855.3,286046995.0,N
1685087875.1,286046995.4,N
1685087876.0,286046995.4,N
1685087895.8,286046996.7,N
1685087915.7,286046997.1,N
1685087935.5,286046995.3,N
1685087955.3,286046997.9,N
1685087975.2,286046995.2,N
1685087995.0,286046994.0,N
1685087995.9,286046994.0,N
